Location: Unspecified
(39.0670°S, 0.0000°E)
Time: 19:04:49
(UTC+00:00)

DIWATA 2B (PO-101) - Visible Passes

Search period start: 18 October 2019 00:00
Search period end: 28 October 2019 00:00
Orbit: 587 x 599 km, 97.9° (Epoch: 18 October)

Date Brightness Start Highest point End Pass type
(mag) Time Alt. Az. Time Alt. Az. Time Alt. Az.
18 Oct ? 02:04:13 10° S 02:05:24 18° S 02:05:24 18° S visible
19 Oct ? 02:13:16 10° S 02:14:31 18° SSW 02:14:31 18° SSW visible
20 Oct ? 00:47:00 10° SE 00:47:02 10° SE 00:47:02 10° SE visible
20 Oct ? 02:22:22 10° SSW 02:23:39 17° SSW 02:23:39 17° SSW visible
21 Oct ? 00:55:41 10° SE 00:56:10 13° SE 00:56:10 13° SE visible
21 Oct ? 02:31:33 10° SSW 02:32:46 16° SSW 02:32:46 16° SSW visible
22 Oct ? 01:04:24 10° SSE 01:05:17 15° SE 01:05:17 15° SE visible
22 Oct ? 02:40:47 10° SSW 02:41:54 14° SW 02:41:54 14° SW visible
23 Oct ? 01:13:12 10° SSE 01:14:24 18° SSE 01:14:24 18° SSE visible
23 Oct ? 02:50:10 10° SSW 02:51:01 12° SW 02:51:01 12° SW visible
24 Oct ? 01:22:02 10° SSE 01:23:31 21° SSE 01:23:31 21° SSE visible
24 Oct ? 02:59:50 10° SW 03:00:07 11° SW 03:00:07 11° SW visible
25 Oct ? 01:30:55 10° SSE 01:32:38 24° SSE 01:32:38 24° SSE visible
26 Oct ? 01:39:49 10° S 01:41:45 26° S 01:41:45 26° S visible
27 Oct ? 01:48:46 10° S 01:50:51 28° S 01:50:51 28° S visible
